Flag for U.S.A. Weather past 2 weeks in Louisville, Kentucky, U.S.A.

Now
44 °F

Partly sunny.


Feels Like: 40 °F
Forecast: 25 / 43 °F
Wind: 8 mph from Northeast

Location: Standiford Field

Current Time: Dec 21, 2014 at 4:18:22 PM

Latest Report: Dec 21, 2014 at 3:56 PM


Visibility: 9 mi

Pressure: 30.16 "Hg

Humidity: 55%

Dew point: 29 °F

Location of LouisvilleLocation

Historic Weather in Louisville — Graph

°F

Louisville temperature yesterday

Maximum temperature yesterday: 39 °F (at 2:56 PM)
Minimum temperature yesterday: 30 °F (at 1:56 AM)
Average temperature yesterday: 33 °F

Past Weeks' High & Low Weather Summary

 TemperatureHumidityPressure
High56 °F (Dec 16, 1:56 AM)93% (Dec 14, 12:56 PM)30.58 "Hg (Dec 14, 12:56 PM)
Low26 °F (Dec 12, 7:56 AM)47% (Dec 11, 2:56 PM)29.71 "Hg (Dec 16, 3:56 AM)
Average39 °F72%30.24 "Hg
* Reported Dec 6 2:56 PM — Dec 21 2:56 PM, Louisville, Weather by CustomWeather, © 2014

Note: Actual official high and low records may vary slightly from our data, if they occured in-between our weather recording intervals... More about our weather records

Advertising

Louisville weather history for previous 24 hours

 ConditionsComfort  
Time TempWeatherWind HumidityBarometerVisibility
2:56 PM
Dec 21
43 °FPartly sunny.7 mph58%30.17 "Hg9 mi
1:56 PM42 °FPartly sunny.6 mph60%30.21 "Hg8 mi
12:56 PM40 °FPartly sunny.6 mph63%30.23 "Hg8 mi
11:56 AM38 °FPartly sunny.7 mph68%30.27 "Hg8 mi
10:56 AM35 °FScattered clouds.10 mph75%30.30 "Hg7 mi
9:56 AM31 °FIce fog.5 mph85%30.31 "Hg4 mi
8:56 AM29 °FIce fog.No wind85%30.32 "Hg4 mi
7:56 AM26 °FIce fog.No wind88%30.32 "Hg4 mi
6:56 AM26 °FIce fog.No wind84%30.30 "Hg5 mi
5:56 AM26 °FIce fog.No wind88%30.30 "Hg5 mi
4:56 AM26 °FIce fog.No wind88%30.31 "Hg4 mi
3:56 AM27 °FIce fog.3 mph89%30.31 "Hg5 mi
2:56 AM26 °FIce fog.No wind88%30.31 "Hg5 mi
1:56 AM28 °FIce fog.No wind85%30.31 "Hg5 mi
12:56 AM28 °FIce fog.No wind85%30.30 "Hg6 mi
11:56 PM
Dec 20
30 °FHaze.No wind82%30.31 "Hg6 mi
10:56 PM30 °FOvercast.3 mph82%30.32 "Hg7 mi
9:56 PM31 °FMostly cloudy.3 mph79%30.31 "Hg7 mi
8:56 PM31 °FPartly cloudy.6 mph79%30.31 "Hg7 mi
7:56 PM32 °FPassing clouds.5 mph75%30.31 "Hg8 mi
6:56 PM34 °FMostly cloudy.7 mph73%30.30 "Hg8 mi
5:56 PM36 °FOvercast.8 mph67%30.29 "Hg9 mi
4:56 PM37 °FOvercast.5 mph65%30.29 "Hg8 mi
Weather by CustomWeather, © 2014

See weather overviewHow to use our weather pages